Location: Arclight Observatory
(36.5667°N, 87.3333°W)
Time: 14:28:14
(UTC-06:00)

ISS - Visible Passes

Search period start: 26 January 2015 00:00
Search period end: 05 February 2015 00:00
Orbit: 402 x 410 km, 51.6° (Epoch: 26 January)

Date Brightness Start Highest point End Pass type
(mag) Time Alt. Az. Time Alt. Az. Time Alt. Az.
26 Jan -2.7 05:28:05 34° NNW 05:29:09 52° NE 05:32:23 10° ESE visible
27 Jan -0.7 04:38:40 21° ENE 04:38:40 21° ENE 04:40:13 10° E visible
27 Jan -2.0 06:11:23 13° WNW 06:13:45 26° SW 06:16:32 10° S visible
28 Jan -3.2 05:22:05 54° SW 05:22:05 54° SW 05:25:16 10° SE visible
29 Jan -0.4 04:32:50 16° ESE 04:32:50 16° ESE 04:33:33 10° SE visible
30 Jan -0.9 05:16:23 14° SSW 05:16:23 14° SSW 05:17:09 10° S visible
02 Feb -1.0 19:14:17 10° SW 19:15:24 20° SSW 19:15:24 20° SSW visible
03 Feb -2.1 18:22:54 10° S 18:25:39 25° SE 18:26:13 24° ESE visible
04 Feb -2.4 19:06:52 10° WSW 19:09:37 47° WNW 19:09:37 47° WNW visible
